User: anonymous   Login
Location: Dob?e?
(49.9411°N, 15.1496°E)
Time: 06:46:09
(UTC+00:00)
Language:

RS-44 - Orbit

View from above orbital plane
View from above orbital plane
View from above satellite
View from above satellite

Ground track
Ground track

The orbit data is extracted from the following two-line orbital elements,

1 44909U 19096E   21298.25374486  .00000022  00000-0  39201-4 0  9995
2 44909  82.5263  26.5581 0218091 149.4427 211.9593 12.79711236 85421
Epoch (UTC): 25 October 2021 06:05:23
Eccentricity: 0.0218091
inclination: 82.5263°
perigee height: 1174 km
apogee height: 1511 km
right ascension of ascending node: 26.5581°
argument of perigee: 149.4427°
revolutions per day: 12.79711236
mean anomaly at epoch: 211.9593°
orbit number at epoch: 8542

The dashed part of the orbit path shows where the satellite is in the earth's shadow,  

DLR